Weather History for K54J - December, 2013

Change the Weather History Date:

Wednesday, December 11, 2013

  Actual Average (KCEW) Record (KCEW)
Temperature  
Mean Temperature 48 °F -  
Max Temperature 61 °F 65 °F 78 °F (2007)
Min Temperature 36 °F 39 °F 24 °F (1950)
Degree Days  
Heating Degree Days 16    
Moisture  
Dew Point 39 °F    
Average Humidity 70    
Maximum Humidity 82    
Minimum Humidity 52    
Precipitation  
Precipitation 0.00 in - - ()
Sea Level Pressure  
Sea Level Pressure 30.33 in    
Wind  
Wind Speed 8 mph (NNE)    
Max Wind Speed 12 mph    
Max Gust Speed 16 mph    
Visibility 10 miles    
Events      
Averages and records for this station are not official NWS values.
T = Trace of Precipitation, MM = Missing Value Source: NWS Daily Summary

Daily Weather History Graph

Daily Weather History Graph

Search for Another Location

Airport or City:

Trip Planner

Search our weather history database for the weather conditions in past years. The results will help you decide how hot, cold, wet, or windy it might be!

Date:

Astronomy

Dec. 11, 2013 Rise Set
Actual Time 6:32 AM CST 4:43 PM CST
Civil Twilight 6:05 AM CST 5:10 PM CST
Nautical Twilight 5:35 AM CST 5:40 PM CST
Astronomical Twilight 5:06 AM CST 6:09 PM CST
Moon 1:00 PM CST (12/11) 1:11 AM CST (12/11)
Length of Visible Light 11h 04m
Length of Day
10h 11m
Waxing Gibbous, 72% of the Moon is Illuminated
Dec 11
Waxing Gibbous
Dec 17
Full
Dec 25
Last Quarter
Jan 1
New
Jan 7
First Quarter

Hourly Weather History & Observations

Time (CST) Temp. Windchill Dew Point Humidity Pressure Visibility Wind Dir Wind Speed Gust Speed Precip Events Conditions
12:15 AM 40.1 °F 33.6 °F 34.3 °F 80% 30.32 in 10.0 mi NNE 10.4 mph - N/A   Clear
12:35 AM 39.7 °F 33.7 °F 34.2 °F 80% 30.32 in 10.0 mi NNE 9.2 mph - N/A   Clear
12:55 AM 39.4 °F 33.2 °F 34.3 °F 82% 30.31 in 10.0 mi NNE 9.2 mph - N/A   Clear
1:15 AM 39.4 °F 33.2 °F 34.0 °F 81% 30.31 in 10.0 mi NNE 9.2 mph - N/A   Clear
1:35 AM 39.2 °F 33.0 °F 33.8 °F 81% 30.30 in 10.0 mi NNE 9.2 mph - N/A   Clear
1:55 AM 39.2 °F 32.5 °F 33.8 °F 81% 30.30 in 10.0 mi NNE 10.4 mph - N/A   Clear
2:15 AM 39.2 °F 33.0 °F 33.4 °F 80% 30.29 in 10.0 mi NNE 9.2 mph - N/A   Clear
2:35 AM 39.0 °F 33.4 °F 32.9 °F 79% 30.30 in 10.0 mi NNE 8.1 mph - N/A   Clear
2:55 AM 38.7 °F 31.8 °F 32.2 °F 78% 30.30 in 10.0 mi NNE 10.4 mph - N/A   Clear
3:15 AM 38.3 °F 30.9 °F 32.2 °F 79% 30.30 in 10.0 mi NNE 11.5 mph - N/A   Clear
3:35 AM 37.9 °F 31.5 °F 32.0 °F 79% 30.30 in 10.0 mi NNE 9.2 mph - N/A   Clear
3:55 AM 37.4 °F 30.8 °F 32.0 °F 81% 30.30 in 10.0 mi NNE 9.2 mph - N/A   Clear
4:15 AM 37.4 °F 30.3 °F 32.0 °F 81% 30.30 in 10.0 mi NNE 10.4 mph 16.1 mph N/A   Clear
4:35 AM 37.4 °F 30.8 °F 31.8 °F 80% 30.30 in 10.0 mi NNE 9.2 mph - N/A   Clear
4:55 AM 37.4 °F 30.8 °F 31.5 °F 79% 30.30 in 10.0 mi NNE 9.2 mph - N/A   Clear
5:15 AM 37.2 °F 30.6 °F 31.1 °F 79% 30.31 in 10.0 mi NE 9.2 mph - N/A   Clear
5:35 AM 37.0 °F 30.4 °F 31.1 °F 79% 30.31 in 10.0 mi NE 9.2 mph 16.1 mph N/A   Clear
5:55 AM 37.0 °F 29.8 °F 31.1 °F 79% 30.33 in 10.0 mi NNE 10.4 mph 16.1 mph N/A   Clear
6:15 AM 36.9 °F 30.7 °F 31.1 °F 80% 30.33 in 10.0 mi NNE 8.1 mph - N/A   Clear
6:35 AM 36.7 °F 31.2 °F 30.9 °F 80% 30.34 in 10.0 mi NNE 6.9 mph - N/A   Clear
6:55 AM 37.4 °F 30.3 °F 31.1 °F 78% 30.34 in 10.0 mi NNE 10.4 mph - N/A   Clear
7:15 AM 37.9 °F 32.1 °F 31.1 °F 76% 30.35 in 10.0 mi NNE 8.1 mph - N/A   Clear
7:35 AM 38.8 °F 32.1 °F 31.1 °F 74% 30.35 in 10.0 mi NE 10.4 mph - N/A   Clear
7:55 AM 40.1 °F 33.6 °F 31.5 °F 71% 30.36 in 10.0 mi NE 10.4 mph - N/A   Clear
8:15 AM 41.7 °F 37.3 °F 32.0 °F 68% 30.37 in 10.0 mi NE 6.9 mph - N/A   Clear
8:30 AM 43.0 °F 36.8 °F 32.4 °F 66% 30.37 in 10.0 mi ENE 11.5 mph 16.1 mph N/A   Clear
8:55 AM 45.1 °F 40.3 °F 32.9 °F 62% 30.38 in 10.0 mi NE 9.2 mph - N/A   Clear
9:15 AM 46.6 °F - 33.6 °F 61% 30.38 in 10.0 mi ENE 8.1 mph - N/A   Clear
9:35 AM 48.7 °F - 34.9 °F 59% 30.38 in 10.0 mi ENE 9.2 mph - N/A   Clear
9:55 AM 49.6 °F - 36.1 °F 60% 30.38 in 10.0 mi ENE 10.4 mph - N/A   Clear
10:15 AM 51.4 °F - 37.8 °F 60% 30.37 in 10.0 mi ENE 6.9 mph - N/A   Clear
10:35 AM 52.5 °F - 38.8 °F 60% 30.36 in 10.0 mi ENE 8.1 mph - N/A   Clear
10:55 AM 53.4 °F - 39.6 °F 59% 30.35 in 10.0 mi ENE 6.9 mph - N/A   Clear
11:15 AM 55.0 °F - 40.5 °F 58% 30.34 in 10.0 mi NNE 5.8 mph - N/A   Clear
11:35 AM 55.6 °F - 40.8 °F 58% 30.33 in 10.0 mi ENE 3.5 mph - N/A   Clear
11:55 AM 57.2 °F - 41.5 °F 56% 30.33 in 10.0 mi ENE 3.5 mph - N/A   Clear
12:15 PM 57.6 °F - 42.3 °F 57% 30.32 in 10.0 mi North 6.9 mph - N/A   Clear
12:35 PM 57.9 °F - 42.4 °F 56% 30.31 in 10.0 mi NW 3.5 mph - N/A   Clear
12:55 PM 59.2 °F - 43.0 °F 55% 30.30 in 10.0 mi North 5.8 mph - N/A   Clear
1:15 PM 59.4 °F - 43.0 °F 55% 30.30 in 10.0 mi North 4.6 mph - N/A   Clear
1:35 PM 60.8 °F - 43.7 °F 53% 30.30 in 10.0 mi North 4.6 mph - N/A   Clear
1:55 PM 60.8 °F - 43.7 °F 53% 30.29 in 10.0 mi NE 5.8 mph - N/A   Clear
2:15 PM 61.7 °F - 43.9 °F 52% 30.29 in 10.0 mi North 4.6 mph - N/A   Clear
2:35 PM 61.7 °F - 43.9 °F 52% 30.29 in 10.0 mi NNE 4.6 mph - N/A   Clear
2:55 PM 61.9 °F - 44.2 °F 52% 30.29 in 10.0 mi NNE 8.1 mph - N/A   Clear
3:15 PM 61.2 °F - 44.1 °F 53% 30.29 in 10.0 mi North 4.6 mph - N/A   Clear
3:35 PM 60.6 °F - 44.2 °F 55% 30.29 in 10.0 mi North 6.9 mph - N/A   Clear
3:55 PM 60.1 °F - 44.2 °F 56% 30.30 in 10.0 mi North 5.8 mph - N/A   Clear
4:10 PM 59.2 °F - 44.6 °F 58% 30.30 in 10.0 mi North 5.8 mph - N/A   Clear
4:35 PM 57.0 °F - 45.9 °F 66% 30.31 in 10.0 mi North 5.8 mph - N/A   Clear
4:55 PM 55.4 °F - 46.2 °F 71% 30.31 in 10.0 mi North 3.5 mph - N/A   Clear
5:15 PM 54.7 °F - 46.2 °F 73% 30.31 in 10.0 mi North 3.5 mph - N/A   Clear
5:35 PM 54.0 °F - 46.2 °F 75% 30.33 in 10.0 mi North 4.6 mph - N/A   Clear
5:55 PM 52.7 °F - 45.9 °F 78% 30.33 in 10.0 mi North 4.6 mph - N/A   Clear
6:15 PM 52.0 °F - 45.7 °F 79% 30.33 in 10.0 mi North 5.8 mph - N/A   Clear
6:35 PM 51.6 °F - 45.5 °F 80% 30.34 in 10.0 mi North 5.8 mph - N/A   Clear
6:55 PM 51.6 °F - 45.3 °F 79% 30.34 in 10.0 mi North 4.6 mph - N/A   Clear
7:15 PM 51.8 °F - 44.8 °F 77% 30.34 in 10.0 mi North 4.6 mph - N/A   Clear
7:35 PM 51.1 °F - 44.8 °F 79% 30.35 in 10.0 mi North 4.6 mph - N/A   Clear
7:55 PM 50.4 °F - 44.8 °F 81% 30.35 in 10.0 mi North 4.6 mph - N/A   Clear
8:15 PM 50.0 °F - 44.6 °F 82% 30.35 in 10.0 mi North 5.8 mph - N/A   Clear
8:35 PM 49.5 °F - 43.9 °F 81% 30.35 in 10.0 mi North 5.8 mph - N/A   Clear
8:55 PM 50.0 °F - 43.2 °F 77% 30.35 in 10.0 mi NNE 6.9 mph - N/A   Clear
9:15 PM 50.0 °F - 42.8 °F 76% 30.35 in 10.0 mi NNE 5.8 mph - N/A   Clear
9:35 PM 49.3 °F - 42.4 °F 77% 30.36 in 10.0 mi North 6.9 mph - N/A   Clear
9:55 PM 49.6 °F - 41.9 °F 75% 30.35 in 10.0 mi NNE 6.9 mph - N/A   Clear
10:15 PM 50.2 °F - 41.0 °F 71% 30.35 in 10.0 mi NNE 8.1 mph - N/A   Clear
10:35 PM 50.9 °F - 41.0 °F 69% 30.34 in 10.0 mi NE 9.2 mph - N/A   Mostly Cloudy
10:55 PM 50.9 °F - 40.1 °F 67% 30.33 in 10.0 mi NNE 8.1 mph - N/A   Overcast
11:15 PM 50.9 °F - 39.0 °F 64% 30.33 in 10.0 mi NE 6.9 mph - N/A   Overcast
11:35 PM 50.9 °F - 39.0 °F 64% 30.33 in 10.0 mi North 4.6 mph - N/A   Overcast
11:55 PM 50.9 °F - 38.5 °F 62% 30.34 in 10.0 mi NNW 5.8 mph - N/A   Overcast